Location: ???????
(38.3360°N, 23.6977°E)
Time: 23:07:30
(UTC+00:00)

COSMO-SKYMED 1 - Pass Details

Date: 17 November 2025
Orbit: 579 x 581 km, 97.9° (Epoch: 09 December)

Event Time Altitude Azimuth Distance (km) Brightness Sun altitude
Exits shadow 17:21:13 13° 350° (N) 1,728 4.9 -25.4°
Maximum altitude 17:24:29 34° 288° (WNW) 965 4.0 -26.1°
Drops below altitude 10° 17:28:11 10° 224° (SW) 1,888 5.6 -26.8°
Sets 17:30:27 0° 215° (SW) 2,782 6.4 -27.2°
